Location: Caltech
(34.1382°N, 118.1253°W)
Time: 00:21:15
(UTC-07:00)

ALOS - Visible Passes

Search period start: 26 May 2017 00:00
Search period end: 05 June 2017 00:00
Orbit: 684 x 687 km, 97.8° (Epoch: 25 May)

Date Brightness Start Highest point End Pass type
(mag) Time Alt. Az. Time Alt. Az. Time Alt. Az.
26 May 3.4 20:14:46 10° S 20:19:14 46° W 20:23:43 10° NNW visible
27 May 4.9 20:53:51 10° SW 20:56:56 18° W 21:00:04 10° NW visible
29 May 4.2 20:30:21 10° SSW 20:34:27 30° W 20:38:34 10° NW visible
30 May 5.2 21:10:40 10° WSW 21:12:14 11° W 21:13:48 10° WNW visible
01 Jun 4.8 20:46:13 10° SW 20:49:41 21° W 20:53:11 10° NW visible
03 Jun 3.9 20:22:56 10° SSW 20:27:13 36° W 20:31:30 10° NNW visible
04 Jun 5.0 21:02:35 10° WSW 21:04:58 14° W 21:07:21 10° WNW visible
